Tracking 19562 objects as of 23-Mar-2019
HD Live streaming from Space Station
objects crossing your sky now

TIROS 1

Track TIROS 1 now!
10-day predictions
TIROS 1 is classified as:


NORAD ID: 29
Int'l Code: 1960-002B
Perigee: 637.9 km
Apogee: 671.2 km
Inclination: 48.4 °
Period: 97.7 minutes
Semi major axis: 7025 km
RCS: 0.8537 m2 (medium)
Launch date: April 1, 1960
Source: United States (US)
Launch site: AIR FORCE EASTERN TEST RANGE (AFETR)
aabbcc
Your satellite tracking list
Your tracking list is empty




NASA's NSSDC Master Catalog

Two Line Element Set (TLE):
1    29U 60002B   19082.75957011 -.00000136  00000-0  10767-4 0  9990
2    29  48.3789 280.1982 0023665 100.2627 260.0955 14.74293415152018
Source of the keplerian elements: AFSPC